Theta_e
305 305 305 305 305 305 305 306 306 306 306 306 306 306 306 306 306 306 306 306 306 306 306 306 306 306 306 306 306 307 308 309 309 307 307 306 305 306 306 308 310 312 312 312 312 313 313 313 313 313 314 312 311 312 312 310 310 315 318 317 317 317 315 313 313 313 313 311 308 306 305 303 301 299 298 298 297 295 296 296 296 297 297 297 297 296 296 296
304 305 304 305 305 305 305 306 306 306 306 306 306 306 306 306 306 306 306 306 306 306 306 306 307 306 307 307 307 307 308 309 308 307 306 305 305 307 307 308 310 311 312 312 312 313 313 313 313 313 313 311 311 312 313 311 310 313 315 316 315 314 310 309 311 311 311 310 307 304 303 303 301 300 299 298 296 296 297 296 297 297 297 297 297 297 297 297
304 304 304 305 305 305 305 306 307 306 306 306 306 306 306 306 306 306 306 306 306 307 307 307 307 308 308 307 307 307 307 310 308 306 305 305 306 307 308 309 311 311 311 312 312 312 312 312 313 313 311 310 310 310 311 310 310 311 313 315 311 309 307 305 308 309 308 307 305 303 301 301 299 299 299 298 297 297 298 297 297 297 296 297 297 297 297 297
304 304 304 305 305 305 305 306 307 307 307 307 306 306 306 306 307 306 306 306 307 307 307 307 307 308 309 308 308 306 307 311 308 304 305 305 307 308 308 309 310 311 312 312 311 311 311 311 312 311 311 311 309 309 309 308 309 308 310 314 309 308 308 304 304 305 305 304 304 303 301 300 298 297 298 298 299 298 297 297 296 297 297 297 297 297 296 296
304 304 305 305 305 305 305 306 306 307 307 307 306 306 306 306 306 306 306 306 307 307 307 307 307 307 308 307 308 306 308 312 308 304 304 305 307 308 309 309 310 311 311 312 311 310 310 311 310 309 309 309 309 309 307 306 307 306 305 308 307 307 306 302 302 302 302 302 303 302 302 300 297 297 297 298 300 299 297 297 296 296 297 297 297 297 296 297
305 305 305 305 305 305 305 306 307 307 307 306 307 307 307 307 306 306 307 307 307 308 308 308 307 307 307 307 307 307 309 309 305 303 304 305 307 308 309 309 309 310 311 311 310 311 311 311 310 309 308 307 308 308 307 305 307 307 304 303 304 305 303 300 300 299 300 303 303 302 300 298 297 297 296 297 298 297 297 296 296 296 296 296 295 296 296 297
304 305 305 305 305 305 306 306 307 308 307 307 307 307 307 307 307 307 307 307 307 308 308 308 308 307 307 307 307 308 307 305 303 303 303 306 307 307 308 309 309 310 310 311 311 311 310 310 310 309 309 308 307 307 306 306 306 307 304 301 300 301 300 298 298 298 299 301 299 298 298 296 298 298 295 296 296 296 296 295 295 295 295 294 294 296 296 296
304 305 305 305 306 307 307 307 307 308 307 306 307 307 307 307 308 307 307 307 307 308 308 308 309 308 307 308 309 307 304 304 303 302 303 306 307 308 308 308 309 310 310 310 310 311 310 309 309 309 310 309 308 307 306 305 305 304 302 300 299 298 298 298 298 298 298 297 296 297 298 297 297 296 296 297 296 296 296 296 294 295 294 294 295 296 296 296
304 305 305 306 307 308 307 308 308 308 306 306 306 307 307 307 308 307 307 307 307 308 308 309 308 308 307 309 311 308 304 303 302 302 304 306 307 308 309 308 309 309 308 307 308 309 309 308 308 308 308 306 306 306 306 306 305 303 301 301 300 299 299 299 299 298 298 297 297 298 298 297 296 295 297 297 297 296 296 296 296 296 296 297 297 297 296 297
305 305 306 307 307 308 308 308 308 306 306 306 307 307 307 307 307 307 308 307 308 308 308 308 308 308 307 310 311 307 304 303 302 303 304 305 307 308 308 308 308 308 308 306 307 308 308 308 307 307 306 304 304 304 305 306 304 301 301 301 300 300 299 299 299 298 298 298 297 299 299 298 296 296 299 298 296 296 296 297 296 296 297 298 298 297 297 297
306 306 306 307 308 307 307 308 307 306 306 306 307 307 307 307 307 307 307 307 307 307 307 307 308 308 307 308 308 305 304 303 302 302 304 306 307 307 307 307 308 308 308 306 307 308 307 307 306 307 306 304 304 303 303 303 302 301 301 301 300 300 299 299 300 298 299 299 297 298 299 298 297 298 301 298 295 295 296 297 297 297 298 298 298 298 297 297
306 307 307 307 307 306 306 307 307 307 307 307 307 307 308 308 308 307 307 307 307 307 307 307 307 307 306 306 306 304 304 303 302 302 304 305 305 305 305 306 307 307 307 305 304 305 304 304 306 307 305 304 304 303 302 300 301 301 301 301 300 301 300 299 299 298 299 299 296 297 300 300 299 300 299 297 295 295 296 297 298 297 298 298 298 299 298 298
306 306 307 307 307 307 306 307 308 307 308 308 307 307 307 307 307 308 308 308 308 308 308 308 307 307 308 307 305 305 305 304 303 303 303 303 303 303 305 305 305 305 305 304 302 303 303 303 305 304 303 303 303 303 302 299 300 301 300 301 301 302 301 299 299 298 299 298 295 297 303 302 301 300 299 296 295 295 297 298 298 298 298 298 298 298 299 299
305 306 307 307 307 307 307 307 308 308 308 308 307 307 307 307 308 308 308 308 307 307 307 307 307 307 308 306 305 305 305 304 304 304 303 303 303 303 303 303 304 303 303 303 302 303 303 303 304 302 302 302 301 301 301 299 300 300 300 302 303 305 302 299 298 299 300 298 295 298 303 303 301 301 299 296 294 295 298 299 298 298 297 298 298 298 299 299
305 305 306 306 307 307 307 308 308 308 308 308 308 308 308 308 308 308 308 308 308 308 307 307 307 307 308 306 305 305 305 305 304 304 304 304 304 304 303 303 303 303 303 302 302 303 303 303 303 302 301 301 302 302 301 301 300 300 302 304 304 305 303 300 298 298 299 298 296 299 303 303 302 301 299 295 294 295 297 299 299 298 298 298 298 298 299 299
305 306 306 306 307 307 307 308 308 308 308 308 308 308 308 308 308 308 308 308 308 308 308 308 307 309 309 307 305 305 305 305 304 304 304 304 304 304 304 304 304 303 303 303 303 303 303 304 303 301 301 301 302 303 304 304 303 302 304 305 304 304 303 301 299 296 297 298 298 300 302 303 302 300 298 294 294 296 297 298 298 298 298 298 298 298 298 299
305 306 306 306 307 307 307 307 308 308 308 308 308 308 308 308 308 308 308 308 308 308 308 307 306 309 308 306 306 306 305 304 304 304 304 304 304 304 304 304 304 303 304 305 304 305 305 305 304 303 302 302 300 303 306 305 305 304 304 304 302 302 303 303 301 297 297 298 299 300 301 303 302 301 299 295 295 296 297 298 299 299 299 298 298 298 298 298
306 306 305 305 307 307 307 308 308 308 308 308 308 308 308 308 308 308 308 309 308 308 309 307 307 311 309 306 306 305 304 304 304 304 304 305 304 304 304 303 303 304 308 309 306 307 307 306 306 305 304 303 301 304 307 304 304 305 305 305 303 301 302 303 301 299 298 299 300 301 301 302 303 301 300 297 294 295 297 299 299 298 298 298 298 298 298 298
305 305 305 305 306 308 308 308 308 308 308 308 308 308 308 308 309 308 307 307 310 311 309 307 309 313 310 307 305 304 303 303 304 304 303 304 304 303 303 303 305 308 311 310 306 306 307 307 308 307 304 302 299 300 303 301 301 304 304 304 304 303 302 301 300 298 297 300 301 301 302 302 302 302 302 298 294 295 297 298 298 298 298 298 298 298 299 298
305 304 305 305 306 308 307 307 308 308 308 307 308 308 310 313 312 308 305 305 306 307 308 308 309 311 309 307 305 304 304 304 305 304 303 303 303 304 304 305 309 308 306 307 306 305 306 307 305 303 301 300 297 296 297 296 297 301 303 303 303 303 303 301 300 297 296 300 302 300 301 301 301 302 302 299 295 296 298 298 299 299 299 299 299 299 299 299
305 304 305 305 305 307 308 307 308 307 308 307 308 310 313 317 315 308 306 305 303 303 306 306 306 307 305 304 303 303 305 306 307 305 303 302 302 305 306 308 311 306 302 303 305 306 307 306 302 300 299 297 296 295 295 297 298 301 303 303 303 303 303 300 299 298 297 300 302 300 300 302 302 303 303 299 297 298 299 300 301 300 300 300 299 300 300 300
305 305 306 306 306 308 308 308 308 308 308 306 307 310 309 310 310 307 307 308 305 303 305 305 305 306 303 303 302 302 307 308 309 307 303 303 304 306 306 307 309 305 303 305 307 307 307 304 301 298 296 295 296 296 296 299 301 303 303 304 304 302 302 301 298 299 298 300 303 301 300 303 303 302 301 298 298 300 299 299 299 299 300 300 300 300 299 299
305 307 309 309 307 308 309 308 308 308 307 307 308 308 306 306 307 307 309 311 308 305 306 307 308 308 307 305 302 304 308 306 307 307 303 304 306 305 306 306 305 304 305 308 309 309 307 302 298 295 294 297 299 298 299 302 303 303 303 304 304 302 302 303 301 299 298 298 300 300 301 303 302 301 299 297 296 297 297 296 297 297 298 299 299 298 297 298
306 308 310 311 308 308 308 308 308 307 307 308 308 307 307 307 307 307 310 312 312 308 305 304 306 307 307 305 303 305 307 303 304 304 301 304 307 304 304 303 304 303 302 305 308 307 303 298 295 294 295 298 301 301 301 304 304 302 302 303 303 301 302 302 302 301 300 298 297 299 304 304 303 302 301 299 297 298 298 297 299 298 297 298 298 298 297 297
306 309 310 310 309 308 308 308 308 307 308 308 308 307 307 307 307 307 312 316 314 309 305 304 305 305 303 303 303 304 306 305 303 302 300 302 305 305 303 302 304 303 300 304 306 303 300 296 294 296 298 299 302 302 300 302 304 303 300 300 301 301 301 301 302 302 303 303 298 298 305 306 304 303 302 300 299 300 300 299 300 301 299 298 298 299 299 298
305 309 310 310 309 308 309 310 308 307 310 308 307 308 307 308 307 307 313 318 313 309 309 308 307 306 304 304 303 303 308 307 301 300 300 301 302 304 304 302 303 302 300 301 303 302 300 296 295 298 300 302 303 302 298 298 304 304 299 297 299 300 301 301 302 303 304 305 300 298 303 306 305 304 301 299 300 302 302 301 301 301 300 299 299 299 298 298
304 307 309 310 310 310 312 312 308 309 312 309 307 308 307 308 307 305 313 318 312 308 310 311 309 306 305 303 301 305 311 307 302 301 300 300 301 303 306 305 303 302 299 301 305 303 300 299 298 299 301 305 304 302 298 296 303 304 298 297 299 300 302 301 301 303 303 303 301 299 301 303 305 305 301 299 301 303 303 303 302 302 300 299 299 298 298 298
304 306 308 310 310 310 310 311 308 308 311 309 307 308 308 308 305 307 316 316 311 308 308 310 307 305 306 304 302 306 307 305 307 305 299 300 301 303 306 303 302 301 298 304 307 301 298 300 299 299 302 304 301 299 297 296 301 301 296 297 299 299 300 300 301 303 301 302 304 301 299 303 306 304 301 300 302 303 303 303 302 301 301 300 299 298 298 299
303 305 307 309 310 309 309 311 309 307 308 308 308 308 306 305 306 313 319 314 308 307 306 307 307 306 308 307 307 307 304 304 307 305 301 301 302 303 304 301 301 302 300 304 305 300 298 299 297 298 302 301 298 297 295 296 300 298 295 297 298 297 298 299 301 302 301 304 306 301 298 303 306 305 303 302 303 303 303 302 301 300 301 301 300 300 299 298
303 304 305 308 308 308 309 309 308 307 307 307 308 306 304 307 312 316 317 311 308 308 307 309 308 307 309 311 310 307 306 306 304 304 306 305 304 303 301 300 303 304 303 303 302 299 297 297 297 298 299 297 297 297 295 295 297 297 297 300 300 299 298 299 300 300 303 306 304 299 297 301 305 305 304 303 302 302 301 301 301 300 301 301 301 300 299 297
303 304 305 307 307 307 308 308 307 306 307 306 304 304 307 314 319 317 312 309 309 310 310 309 307 306 309 312 309 306 308 307 303 306 308 305 306 305 302 303 306 306 306 305 303 300 299 300 299 297 296 296 297 298 296 294 296 298 300 302 303 302 300 301 302 301 306 308 302 297 296 298 304 305 303 302 301 300 300 300 301 300 300 301 301 299 298 296
304 304 304 306 306 306 307 307 305 304 305 304 304 310 316 316 316 313 310 309 309 310 309 308 306 306 307 309 307 304 307 307 303 304 304 302 303 302 301 303 304 307 309 306 305 304 302 300 298 296 295 295 298 301 300 298 299 301 302 302 306 308 305 306 306 304 306 305 299 296 296 299 304 305 303 302 301 300 299 298 299 299 299 300 300 299 297 297
304 303 303 305 305 305 305 304 304 303 304 304 307 318 325 318 313 309 308 310 308 306 305 305 305 304 306 310 307 303 305 305 303 303 301 302 303 300 299 300 298 305 309 305 305 306 304 301 298 298 298 295 297 302 304 303 302 303 302 303 308 308 307 308 306 305 307 305 298 294 296 302 305 304 302 301 301 299 297 296 296 296 297 298 297 297 296 296
303 303 303 304 304 303 303 303 303 304 304 307 313 319 319 315 311 307 308 308 304 303 304 304 305 306 306 307 303 301 306 305 303 305 303 303 305 303 302 301 299 301 304 305 306 306 308 306 301 299 299 297 296 298 300 300 301 301 297 300 306 305 306 308 306 306 307 305 300 296 299 304 305 303 300 299 298 297 296 295 295 295 295 295 295 295 296 297
303 303 303 303 303 303 303 303 304 305 305 312 323 322 315 312 310 309 310 306 303 305 305 303 308 312 307 303 301 301 306 307 304 305 305 304 304 303 301 301 299 299 303 307 306 303 306 306 300 297 297 296 297 295 294 297 302 300 296 301 305 303 303 304 302 303 302 302 303 301 302 303 302 301 299 297 297 297 297 296 295 296 295 295 297 298 299 299
304 304 304 303 303 303 304 305 306 306 308 319 328 319 313 311 308 308 310 307 305 307 307 307 310 312 309 305 304 303 303 305 305 306 305 302 301 300 299 299 298 297 301 306 305 304 307 306 298 296 297 295 296 295 293 297 302 301 301 304 301 296 299 303 300 297 297 303 305 302 303 304 303 302 300 299 300 300 300 298 297 298 298 298 300 301 301 301
304 304 304 303 303 303 304 306 306 306 313 326 326 312 306 305 302 303 306 304 303 304 308 312 308 307 312 311 307 305 304 305 306 308 306 303 302 300 298 298 297 296 296 300 304 303 306 307 299 296 299 295 292 294 295 295 297 301 304 302 296 295 299 302 304 302 302 306 306 301 303 304 305 305 302 300 302 302 302 301 300 300 301 300 301 302 302 301
303 303 304 303 303 304 303 306 305 307 317 323 318 308 303 302 299 299 300 301 302 303 309 314 307 303 308 312 308 304 305 309 308 308 307 304 304 301 298 298 297 295 294 296 302 300 302 308 303 295 298 296 292 296 300 297 294 298 300 298 298 303 305 304 305 306 306 306 305 304 302 302 304 306 303 303 303 303 302 302 302 301 301 301 301 302 302 300
303 309 311 304 302 304 305 305 305 313 324 321 314 308 303 302 299 296 297 299 301 304 308 309 306 304 304 306 307 303 303 308 308 306 306 305 304 300 297 297 297 296 294 294 300 300 299 308 308 298 295 296 296 299 303 302 298 297 298 297 298 302 304 303 303 304 306 307 305 306 306 305 305 304 303 303 303 302 302 302 302 302 301 301 300 300 300 299
303 313 312 302 303 305 303 305 309 318 324 314 309 306 301 301 300 296 295 298 299 302 306 306 306 309 307 303 303 302 302 304 304 305 305 303 303 301 296 296 296 297 295 293 298 299 298 305 309 301 296 299 301 301 301 301 300 300 302 302 300 298 299 301 300 298 303 306 304 305 308 309 307 303 302 303 302 301 301 301 302 303 301 300 299 299 299 298
305 317 311 301 303 304 305 311 311 308 309 305 303 304 301 301 300 297 295 295 297 298 300 303 304 307 310 307 303 302 302 303 303 304 304 302 304 303 297 294 295 296 297 297 298 299 300 304 308 305 302 304 302 295 293 294 295 298 301 302 303 301 301 305 305 297 297 302 302 303 308 310 307 303 302 301 301 300 299 299 301 302 300 299 298 298 297 296
312 319 307 301 304 304 310 317 305 298 304 304 301 302 302 301 300 299 296 295 297 297 298 301 302 302 306 306 304 302 303 304 303 303 303 302 302 301 296 292 293 294 296 300 299 297 298 302 307 307 303 301 296 291 290 290 290 293 295 297 299 301 303 309 309 303 298 297 297 299 304 308 305 301 300 299 299 298 297 296 298 299 298 297 297 297 296 295
323 316 302 302 304 304 314 320 305 299 302 299 296 297 298 299 299 299 297 298 299 299 301 303 301 301 302 301 304 306 306 304 302 300 301 301 299 297 293 291 293 293 295 299 299 296 298 303 307 308 302 297 293 290 288 288 289 294 296 294 296 299 301 304 304 303 301 298 299 300 304 309 305 299 297 297 296 296 296 294 296 298 298 297 297 297 296 296
320 310 304 304 301 306 325 326 312 305 300 297 298 298 296 296 298 299 299 301 300 299 303 303 299 300 299 296 300 303 302 304 303 299 298 300 298 295 292 291 292 294 297 300 300 298 301 305 308 311 309 306 302 300 298 295 293 297 298 294 294 296 299 301 299 300 303 302 302 304 308 310 305 299 297 297 296 298 298 296 296 297 298 299 298 297 297 296
310 307 309 308 300 305 318 315 311 311 304 304 305 301 299 299 296 297 299 299 297 297 301 301 298 298 297 295 298 299 298 303 304 300 297 298 297 293 292 291 291 293 296 296 296 296 300 303 306 312 313 311 312 310 309 305 299 298 298 294 294 295 299 303 301 302 306 303 300 304 309 309 304 301 300 299 298 299 299 299 298 297 297 297 297 297 297 296
312 314 315 314 306 304 305 300 304 310 307 310 309 301 302 303 298 295 296 298 297 296 298 299 297 298 298 298 302 303 299 298 301 302 301 299 297 293 291 291 292 293 294 295 294 294 299 302 301 308 312 311 312 310 304 303 303 303 300 296 295 295 296 300 302 304 306 302 301 304 307 307 306 305 304 302 301 301 301 301 300 298 297 297 296 297 296 295
317 317 311 311 312 311 308 302 304 309 308 312 311 302 303 305 300 297 296 296 298 296 297 298 297 301 303 302 305 305 300 298 300 302 301 298 296 293 290 290 292 293 295 295 293 293 301 303 299 303 309 306 304 303 299 299 304 305 303 300 297 294 295 299 304 305 303 304 307 306 302 303 306 306 306 305 304 303 303 302 301 300 298 297 296 295 296 296
308 309 301 302 310 314 313 308 307 308 308 309 306 302 304 305 302 302 299 296 296 297 299 301 300 302 305 304 306 307 302 302 303 302 300 298 296 295 294 292 291 292 293 294 292 294 301 303 298 299 307 306 299 297 296 297 300 300 301 302 299 296 296 300 304 303 302 306 310 306 300 302 304 304 305 305 304 303 302 301 299 298 297 296 295 296 298 298
302 306 298 296 305 309 305 303 304 308 309 309 306 303 305 308 304 302 299 298 300 298 299 305 304 302 302 301 305 309 306 307 309 305 303 302 298 297 298 298 294 290 291 293 293 293 299 302 299 297 305 308 299 293 293 295 298 299 299 299 299 297 296 298 301 301 301 304 306 303 300 301 302 303 303 303 303 301 299 298 297 297 298 297 297 298 299 299
307 312 306 302 305 303 300 300 305 312 308 307 310 305 303 308 306 301 298 300 306 302 298 306 307 301 300 301 304 309 307 307 310 306 303 305 303 299 301 303 299 293 292 294 294 293 297 302 300 297 304 309 300 293 293 294 296 301 300 297 297 298 297 297 298 298 298 300 301 300 300 300 301 302 301 301 301 299 298 299 298 299 299 298 299 299 298 298
302 303 303 311 311 303 303 302 303 313 310 307 312 307 303 308 307 303 300 298 303 304 301 307 308 300 298 300 303 305 304 303 306 303 301 303 303 301 300 300 301 299 296 294 294 295 297 299 297 298 306 310 303 298 299 296 296 301 304 300 297 297 299 298 297 297 298 300 300 299 301 302 303 302 301 300 299 298 300 301 301 301 300 299 299 299 298 299
300 298 299 313 314 301 302 303 303 312 312 307 308 305 304 307 303 304 306 299 295 299 299 301 305 303 301 302 302 303 301 299 299 296 295 297 296 296 296 295 298 300 297 295 295 295 297 300 300 299 306 310 304 300 301 302 307 312 313 308 301 297 297 297 296 296 297 299 301 302 304 306 304 302 302 303 302 301 301 302 302 302 301 299 299 298 298 299
Wind_Speed
12 12 12 12 12 12 12 12 12 11 11 11 9 6 5 7 7 9 10 6 3 1 3 4 3 2 2 5 7 17 29 32 31 38 31 24 26 15 10 8 1 6 6 6 8 10 15 16 15 13 14 15 7 3 6 8 6 2 3 8 7 6 6 2 2 4 7 9 7 4 2 5 7 4 2 2 4 6 6 6 4 3 2 1 2 3 4 5
11 11 11 12 12 12 11 11 11 9 8 9 9 7 4 8 9 11 10 4 3 4 7 8 8 7 5 3 0 7 17 32 38 34 27 26 22 12 11 7 3 5 4 6 7 8 14 10 13 18 12 8 5 5 5 5 7 5 5 8 6 5 4 3 4 6 6 9 8 6 3 4 4 2 1 2 5 5 6 6 4 5 4 2 2 3 4 5
10 10 10 11 12 12 11 11 10 9 8 7 8 7 6 11 11 12 9 4 1 4 7 9 11 11 8 9 6 3 1 20 31 23 29 28 18 14 13 11 7 5 5 10 14 17 19 12 19 22 12 9 7 6 8 5 5 6 5 8 7 5 7 5 4 5 6 10 10 7 3 4 4 1 1 3 6 3 4 5 3 5 4 2 2 3 5 5
10 9 9 9 9 10 10 10 10 9 8 8 11 14 13 12 11 11 7 6 7 7 10 13 10 4 5 8 6 4 9 7 17 19 30 26 15 13 13 14 13 13 14 20 27 28 26 22 23 18 11 11 8 8 11 8 4 5 6 9 8 7 9 5 5 7 7 8 8 8 6 5 3 1 1 3 4 3 3 3 1 2 2 2 2 4 6 6
10 9 8 7 6 7 8 9 10 9 9 9 12 18 20 16 14 13 11 12 10 12 18 25 27 16 7 4 6 5 7 2 10 26 31 22 13 10 10 14 16 19 22 27 27 23 22 21 18 13 9 8 7 9 10 8 6 6 8 10 8 7 9 5 5 7 5 6 7 7 5 4 2 1 1 2 2 3 3 2 1 1 2 3 4 6 6 5
10 10 9 8 6 6 7 9 10 10 10 9 11 11 14 15 14 14 14 14 11 11 14 18 25 29 27 22 19 16 6 4 12 29 27 17 12 8 6 8 9 13 19 24 20 17 16 14 13 10 7 9 11 10 8 6 4 7 9 9 8 9 9 5 4 3 2 6 6 4 4 3 3 3 2 2 1 3 2 1 3 4 4 5 5 6 5 5
11 10 9 8 7 7 8 9 10 10 10 8 10 8 6 8 10 11 12 14 12 9 7 10 12 17 22 29 40 34 15 7 17 27 19 12 9 8 6 7 6 11 18 22 21 17 14 15 17 10 9 12 12 13 15 15 11 11 12 8 9 10 7 5 4 3 2 6 5 3 4 1 1 3 1 1 3 2 0 2 4 5 5 5 5 5 4 4
10 9 9 8 8 9 9 10 11 10 9 9 11 8 5 5 7 10 10 11 9 6 3 9 3 5 9 14 24 21 11 12 23 23 13 7 5 6 6 8 10 18 21 21 18 16 12 15 14 7 11 13 10 15 17 17 14 12 13 9 8 8 7 6 6 6 5 5 3 3 4 2 2 1 1 3 4 2 2 2 4 4 4 5 5 5 4 4
10 9 9 10 11 11 12 12 11 11 11 14 16 13 9 6 8 10 9 8 4 1 5 5 6 11 12 8 11 13 10 16 22 20 16 8 4 3 7 10 13 18 16 12 8 8 7 6 6 7 14 13 10 10 6 7 8 7 11 10 9 9 7 6 7 6 4 4 1 2 4 2 1 1 3 5 4 1 3 3 3 4 5 5 5 5 5 5
11 10 10 11 12 13 13 13 13 14 16 20 21 20 18 14 14 12 10 9 6 6 4 5 10 11 17 14 13 12 9 16 21 23 23 16 8 5 9 10 9 12 12 11 8 7 9 14 15 15 16 11 8 7 5 7 8 9 14 13 11 10 6 4 7 5 2 4 2 1 4 2 2 2 3 6 4 1 4 4 3 4 5 4 4 5 5 6
12 11 11 12 12 13 13 13 14 15 17 20 22 22 21 20 21 21 22 22 22 24 23 24 21 23 37 29 16 10 7 16 22 25 29 25 20 17 17 16 15 23 28 25 21 23 26 26 20 12 8 8 11 14 13 12 13 13 15 14 11 9 8 4 5 4 1 3 3 2 2 2 3 3 2 5 4 1 4 5 3 3 4 4 4 4 4 6
14 12 12 12 12 11 12 13 13 13 15 16 17 17 16 16 18 20 22 21 21 21 24 32 31 38 48 29 12 8 9 17 20 26 32 30 31 28 24 25 26 35 39 27 18 20 19 11 9 9 7 8 10 12 9 8 11 11 8 11 10 8 9 6 3 4 3 1 2 2 3 3 5 4 2 4 1 2 5 5 4 3 3 3 4 4 5 5
17 15 12 12 11 10 11 11 12 12 12 13 13 13 15 16 15 15 15 14 15 13 12 17 21 35 38 16 7 9 10 17 20 27 32 31 33 31 29 29 29 32 34 27 17 14 11 10 21 20 9 7 8 9 10 5 4 5 2 5 6 5 6 6 3 2 2 1 0 3 2 1 4 5 4 3 1 3 6 6 5 3 3 3 3 4 5 5
17 16 13 11 10 11 11 12 14 12 12 14 15 17 19 20 18 18 19 19 20 21 19 20 27 39 29 7 6 10 10 14 20 25 26 26 29 32 35 34 35 35 35 34 30 27 24 25 33 23 8 9 12 12 12 4 0 3 1 1 1 1 3 4 3 4 2 2 0 3 2 1 2 3 5 4 1 3 7 7 5 4 3 3 3 4 5 6
14 14 13 11 9 11 11 13 15 14 14 14 15 16 16 16 17 17 18 19 19 21 22 20 25 29 17 5 6 7 9 12 18 21 19 19 20 23 29 31 34 34 34 34 31 31 26 20 22 15 8 10 12 12 8 3 2 1 1 1 2 1 2 2 2 4 2 1 1 3 3 1 1 2 5 4 2 4 7 7 6 5 5 4 4 4 5 6
9 10 11 10 9 11 12 13 15 15 14 13 14 15 13 14 16 16 16 17 17 17 22 20 19 20 10 4 3 5 8 10 14 15 14 16 14 12 14 18 21 23 26 25 23 23 22 17 12 7 7 6 5 5 5 4 3 1 1 3 1 1 2 2 3 3 4 2 2 3 3 2 0 3 5 3 3 5 7 8 7 6 6 5 4 3 4 6
4 6 7 7 9 14 15 15 15 16 15 15 15 13 13 13 12 13 13 14 14 15 21 18 13 16 9 1 2 4 5 9 12 12 11 12 12 9 5 5 7 9 11 14 17 14 13 11 3 2 6 4 2 1 2 4 3 1 2 2 1 0 1 0 3 1 4 2 3 2 4 6 2 3 5 4 4 6 7 9 8 6 6 5 4 4 5 5
2 2 4 6 10 16 19 20 20 21 21 21 19 17 18 16 14 15 11 7 6 7 12 11 7 8 6 1 2 4 6 8 11 12 9 7 10 11 9 6 3 3 1 6 13 10 6 5 1 4 5 4 4 3 1 4 2 2 1 2 2 1 1 2 1 2 6 3 4 4 5 8 6 3 4 4 4 6 8 8 7 6 6 5 5 5 5 6
1 0 2 6 12 15 19 22 23 24 23 23 22 21 20 18 22 29 30 21 8 4 5 8 7 4 5 3 2 4 4 7 9 12 12 7 6 8 11 11 5 4 2 1 7 7 3 3 3 5 5 5 6 5 3 3 3 2 2 2 3 2 1 1 1 4 6 4 5 5 6 8 7 7 4 3 4 5 7 7 6 6 6 6 6 5 5 6
0 1 3 6 13 14 16 21 22 20 17 15 13 11 8 6 11 14 22 23 11 5 5 4 5 6 6 3 4 4 4 6 8 14 18 12 6 3 7 8 4 7 6 1 4 4 2 6 6 4 4 4 4 3 3 2 3 2 3 4 3 2 2 2 2 3 4 5 3 2 6 10 10 11 7 3 3 5 8 7 7 6 6 5 5 6 6 6
2 3 3 7 15 15 16 20 18 15 10 6 3 2 1 0 4 3 3 9 7 7 8 6 7 10 6 3 5 5 1 4 9 17 22 13 5 2 6 6 3 7 5 2 1 2 2 7 5 3 2 2 2 1 1 1 2 2 2 3 2 2 2 2 2 2 3 4 2 2 8 12 11 12 7 4 4 7 7 7 6 5 5 4 5 6 6 5
3 3 3 8 15 17 17 17 12 10 4 4 2 4 5 5 11 12 7 7 6 8 7 6 8 8 5 6 10 7 1 4 9 16 22 15 6 3 3 5 6 5 3 2 1 2 6 6 3 3 1 1 2 2 0 2 4 3 2 0 1 2 2 0 1 1 2 3 3 6 10 13 10 7 3 2 5 5 3 4 4 4 4 4 3 4 5 6
4 4 4 8 15 18 17 14 11 7 2 1 8 14 14 16 19 15 8 7 4 5 5 5 5 5 4 7 12 9 4 6 5 11 22 15 5 3 2 6 8 5 4 5 1 4 5 4 3 2 2 2 3 4 1 1 4 4 3 1 1 3 3 0 2 1 1 1 4 9 10 8 5 2 2 1 2 3 3 4 5 4 5 5 5 4 5 7
5 6 5 8 15 17 16 13 10 5 3 11 19 20 19 18 17 11 6 4 4 3 3 3 3 4 4 4 11 8 5 5 2 9 20 13 2 1 3 6 7 7 7 7 8 10 7 3 2 0 2 2 2 5 3 1 2 3 3 3 1 2 2 1 3 4 1 3 2 10 7 1 3 3 3 3 1 3 3 4 5 4 4 5 5 4 4 5
6 7 7 10 13 15 16 12 8 9 13 18 20 20 19 15 9 5 2 2 3 2 1 1 2 4 3 6 12 5 4 4 2 6 13 10 3 1 2 2 3 5 2 4 10 11 7 2 1 1 1 1 1 4 5 3 0 2 2 2 1 1 0 2 5 6 2 2 3 7 4 1 2 3 3 4 3 3 1 3 6 3 2 2 3 3 3 3
7 8 9 11 13 15 14 7 9 17 16 13 15 17 14 8 4 2 1 2 3 2 2 1 1 4 5 8 11 3 2 2 2 6 11 10 5 0 3 1 2 3 2 1 5 5 4 2 1 0 2 3 3 4 4 4 2 1 1 1 1 1 1 2 4 4 2 2 3 5 4 2 2 3 4 5 5 5 3 4 5 3 1 2 2 2 3 3
7 8 9 11 14 13 6 6 15 17 7 7 15 14 8 4 2 1 1 2 3 2 3 2 1 4 4 6 8 1 1 2 0 6 12 10 5 1 2 2 1 3 1 1 2 3 3 2 3 2 0 2 3 3 4 4 3 1 2 1 1 1 1 1 2 2 1 1 1 3 3 3 3 2 2 4 5 5 4 3 3 3 2 1 2 3 4 3
6 8 9 10 12 6 3 14 21 10 2 10 16 10 5 3 1 1 0 2 2 1 2 2 1 3 3 4 6 3 2 2 1 4 9 10 8 2 4 5 2 5 1 2 2 3 3 4 4 3 1 3 3 2 3 3 2 2 2 1 1 1 1 1 2 0 0 2 1 4 4 3 2 2 2 2 3 4 5 4 3 1 1 0 1 3 4 3
6 8 9 10 10 4 6 19 18 5 6 13 12 7 4 2 1 1 1 1 1 1 0 1 0 2 3 2 6 5 3 3 3 5 7 8 11 7 6 4 4 9 6 3 5 4 2 3 2 2 2 3 2 1 2 2 1 2 2 2 1 1 0 1 2 1 1 1 2 4 6 4 2 2 2 0 2 4 5 4 3 2 1 0 1 2 3 2
6 6 7 9 9 5 9 15 10 4 9 12 9 5 2 1 1 0 2 1 0 0 1 1 1 3 4 1 3 6 5 4 2 5 4 3 7 9 6 1 2 7 8 10 10 4 2 1 1 2 3 1 0 1 0 1 1 1 2 2 2 2 1 1 1 1 2 0 3 3 4 4 2 2 2 1 2 3 4 3 2 1 0 1 1 2 3 3
6 6 7 8 9 8 8 8 8 9 11 9 7 3 1 0 1 1 1 0 0 1 1 2 2 3 4 2 3 5 3 4 5 5 4 2 4 6 4 1 1 3 4 7 7 3 3 2 1 2 1 1 1 1 2 1 2 2 3 3 2 1 1 2 1 1 2 3 3 2 3 3 2 1 1 0 2 3 4 3 2 1 0 1 1 2 3 3
8 6 6 7 8 8 7 8 11 13 10 7 5 2 1 0 1 1 0 1 1 1 1 1 1 2 3 1 3 4 2 3 5 5 4 3 4 5 4 2 1 0 2 3 2 2 2 3 2 1 1 1 2 2 2 3 3 3 3 3 2 1 1 1 1 0 2 2 2 1 3 2 3 3 2 2 3 3 2 3 3 3 3 3 3 4 4 3
11 6 4 6 7 7 9 11 13 11 8 5 3 1 2 1 1 1 1 1 1 1 1 1 1 1 1 1 3 3 1 2 3 3 2 1 3 3 2 3 2 2 1 2 1 2 1 2 1 1 1 1 3 2 0 1 1 2 2 3 3 3 2 3 2 2 2 1 2 1 2 2 2 2 1 3 3 2 2 4 5 5 5 6 6 6 6 5
12 9 7 9 9 10 12 12 11 8 5 4 1 1 2 2 1 1 1 1 1 1 0 1 1 1 2 3 2 3 1 3 3 2 2 1 2 2 1 3 3 2 1 2 1 1 0 2 2 2 1 2 3 3 2 2 2 2 1 3 2 2 3 3 1 2 3 3 1 1 1 2 3 1 1 3 5 4 4 4 4 5 5 5 6 6 5 4
13 12 12 13 12 11 11 9 8 6 4 2 2 2 2 1 2 2 1 1 1 1 1 0 1 1 3 3 2 1 0 2 2 2 4 3 2 2 1 2 5 3 0 0 1 1 1 1 2 2 2 2 1 1 2 2 1 1 1 2 1 1 2 1 2 1 2 3 2 1 2 2 2 1 1 3 5 5 4 3 3 4 4 3 5 5 4 2
11 11 12 12 10 9 8 7 6 4 3 2 4 3 1 1 1 2 1 1 2 3 3 2 1 2 2 1 2 2 1 1 1 1 3 3 0 1 1 1 3 3 1 1 1 1 0 2 3 1 1 2 1 0 1 1 1 0 1 0 2 2 0 2 2 1 1 2 1 1 3 3 2 1 1 1 3 3 2 2 3 3 3 3 4 4 3 1
9 9 10 11 8 5 5 5 3 3 2 3 4 3 1 0 0 0 1 1 0 1 2 2 1 2 2 1 1 2 2 1 1 1 1 1 0 1 0 1 0 1 2 1 1 1 1 2 3 1 1 2 1 2 1 1 2 2 0 3 3 1 0 1 0 0 1 2 1 0 3 5 3 1 1 2 2 2 1 1 2 2 2 3 4 4 3 1
5 6 7 11 9 3 4 4 3 3 4 5 4 2 1 1 1 0 0 1 0 1 1 2 1 1 0 1 1 2 3 1 1 2 1 0 0 1 1 0 1 1 2 2 1 0 1 1 3 1 1 2 1 3 2 2 0 2 1 3 1 1 0 1 0 0 1 2 2 2 2 3 3 1 1 3 4 4 2 1 1 2 2 3 3 3 3 2
3 3 4 10 9 3 3 4 3 3 4 4 3 2 1 1 0 0 0 1 1 1 1 1 1 1 0 0 2 1 2 1 1 1 0 0 1 1 1 1 1 1 1 2 1 1 1 1 2 2 1 0 1 2 2 3 3 2 1 1 0 1 1 0 1 0 1 2 2 3 2 2 4 2 2 4 5 5 4 3 2 2 2 2 2 3 4 3
2 2 1 9 7 5 6 6 5 5 4 3 1 1 1 1 1 0 0 1 1 0 0 1 2 1 1 0 0 1 1 1 1 1 1 0 0 1 1 0 0 1 1 2 1 0 1 1 0 2 1 1 1 1 1 1 1 2 2 1 1 1 1 0 1 1 1 1 1 2 3 2 2 3 4 6 5 4 4 4 4 3 3 3 3 4 4 4
1 2 1 9 4 6 7 8 7 4 3 2 1 2 1 1 2 1 0 0 1 1 0 1 2 2 3 1 0 1 1 1 1 1 1 1 1 0 1 0 1 1 0 1 1 0 0 1 0 2 2 2 1 2 3 3 3 2 1 1 1 1 1 1 0 1 1 1 1 1 4 5 1 2 4 5 4 3 3 3 4 5 4 4 5 5 5 5
2 2 2 10 1 7 5 7 3 2 2 2 1 1 1 1 2 1 0 0 0 0 1 2 2 2 2 1 0 2 2 2 1 1 1 1 1 0 1 1 0 1 1 1 1 1 0 1 0 1 1 1 2 2 2 2 2 2 2 2 1 0 1 2 1 2 2 0 1 1 3 4 1 2 4 4 3 3 2 4 5 6 5 5 6 6 5 5
2 3 2 10 0 7 6 5 1 3 3 1 1 1 2 1 2 1 0 1 1 0 1 1 1 1 1 0 1 2 2 1 1 0 0 1 1 2 2 0 1 1 1 1 1 1 1 1 1 1 1 1 1 2 1 1 2 2 2 1 1 1 1 1 1 1 2 2 2 1 3 4 1 2 3 3 3 4 4 5 7 6 6 5 6 6 4 3
1 3 2 10 2 6 2 3 3 2 2 1 1 2 2 2 2 1 0 1 1 0 2 2 0 1 1 1 2 2 0 0 0 1 0 2 1 2 1 1 2 1 0 1 1 0 1 0 1 2 0 1 2 2 1 0 1 3 1 1 1 1 3 2 1 1 2 4 4 2 4 3 2 2 2 3 3 5 6 5 6 6 6 6 4 4 4 3
2 1 1 9 9 5 2 1 4 5 3 3 4 2 1 2 2 1 0 1 1 1 1 2 0 2 3 1 3 3 2 1 0 0 0 1 1 1 0 1 2 1 1 2 2 1 0 0 1 2 1 1 1 1 1 1 1 2 1 2 3 3 3 2 2 1 3 2 4 5 5 1 1 2 4 5 5 6 8 6 6 6 7 6 5 4 4 3
2 2 1 4 9 7 3 1 2 6 5 4 4 1 1 3 1 0 0 1 1 0 2 2 1 1 2 1 2 3 2 3 1 1 2 1 1 1 1 1 1 1 1 1 2 1 1 1 1 2 3 3 3 1 1 1 1 2 2 4 5 5 3 1 1 3 3 3 4 8 6 6 7 6 5 6 7 7 7 6 5 5 5 6 5 5 5 4
1 2 1 0 2 4 3 2 3 4 4 3 3 2 2 2 1 0 0 0 1 1 1 2 1 1 2 2 2 2 1 2 2 2 2 0 1 1 0 0 1 1 0 1 2 1 1 1 1 1 5 4 1 2 2 2 3 4 3 5 7 7 5 5 6 4 5 4 5 5 4 6 11 9 6 6 7 6 6 6 5 4 3 4 5 5 6 6
1 2 0 1 1 1 2 1 2 4 4 3 2 2 3 3 2 2 1 1 0 1 0 1 1 2 2 2 2 2 2 0 1 2 2 1 1 1 0 1 0 2 1 0 2 1 1 1 1 1 5 5 2 2 2 3 4 4 5 6 8 9 10 11 10 6 7 8 6 1 3 8 12 11 10 11 8 7 8 8 6 5 5 5 5 6 6 5
2 3 1 2 1 2 1 1 3 6 5 3 2 2 3 5 4 2 1 1 0 1 1 1 3 3 3 3 2 3 3 2 0 2 4 3 2 2 1 2 1 1 1 1 0 1 1 1 2 1 5 6 2 1 2 4 4 5 8 9 9 11 13 13 11 7 7 11 10 4 6 12 14 13 14 14 8 4 7 7 5 6 6 6 5 6 6 6
1 3 2 2 3 2 1 2 2 4 3 2 1 2 3 6 6 2 1 2 2 2 1 1 3 4 3 2 2 1 3 3 1 2 5 5 2 3 3 2 3 2 0 1 1 1 1 0 3 2 4 4 1 2 0 2 3 5 8 9 10 9 10 11 10 7 7 11 11 8 10 15 14 11 12 12 6 2 5 7 6 7 6 5 6 6 7 6
3 4 5 5 4 1 2 1 1 2 2 0 1 3 3 5 7 5 3 1 1 2 3 2 5 5 2 1 1 0 1 2 1 1 4 3 1 2 2 1 4 5 3 2 1 1 1 1 2 1 3 3 0 1 1 2 3 7 10 10 13 10 7 8 8 8 10 9 4 3 7 10 8 3 4 8 5 4 7 7 6 6 5 5 7 7 7 7
5 4 3 5 4 1 1 1 1 1 2 0 1 3 2 3 4 4 3 1 1 0 1 2 5 4 1 2 2 1 0 2 2 3 3 4 5 5 3 3 4 3 4 4 1 0 2 2 2 1 3 3 0 0 1 4 5 5 5 7 13 12 8 6 7 10 14 10 4 5 7 5 0 1 2 5 5 6 8 6 6 6 5 6 7 8 8 7
Wind_Direction
106 104 99 92 89 83 84 88 96 100 92 81 73 93 158 181 187 185 175 164 168 306 336 319 322 331 36 58 66 59 58 69 57 40 40 6 350 353 347 346 35 112 121 108 97 86 74 67 70 71 64 61 36 22 51 23 5 345 76 87 95 95 97 80 79 102 115 132 140 136 157 127 121 107 129 180 94 98 98 79 77 94 66 45 34 6 343 339
114 111 104 98 92 81 80 86 95 102 88 70 50 46 133 167 180 179 180 203 246 308 319 302 297 279 270 282 174 71 56 59 50 32 17 358 1 19 21 27 103 123 147 136 127 95 85 72 69 72 64 61 25 26 64 15 13 38 72 90 80 81 84 33 80 103 113 128 129 119 111 107 114 102 173 174 114 116 107 92 105 108 97 99 52 360 349 343
121 118 111 107 96 76 75 83 89 91 80 71 46 38 126 161 178 180 190 207 129 13 350 316 295 278 266 254 244 198 278 45 45 17 354 355 13 31 37 58 86 105 143 133 119 102 96 92 79 77 72 66 38 43 65 24 4 25 52 91 82 98 96 51 77 97 104 125 129 122 114 96 99 341 265 148 126 122 106 100 116 110 94 80 51 2 355 349
121 120 116 116 104 72 70 81 83 78 75 84 67 66 103 138 161 166 168 131 98 56 45 32 15 298 240 229 228 209 239 39 41 348 345 354 14 35 51 68 85 107 123 117 107 102 96 87 77 72 75 73 51 57 53 22 34 35 36 90 105 121 101 55 71 97 104 121 125 127 134 108 94 308 162 163 145 118 112 103 91 95 61 10 2 353 352 345
116 114 114 115 109 72 70 84 82 69 69 102 94 78 88 103 119 133 134 120 103 78 67 54 53 64 95 176 216 221 243 65 13 337 344 352 11 37 60 73 91 104 112 110 103 97 88 82 77 64 62 68 53 64 52 34 75 75 51 79 102 111 104 82 80 94 101 116 122 131 134 107 122 143 77 251 243 103 108 97 312 310 318 322 320 324 331 335
112 109 106 102 99 79 79 90 85 65 59 103 128 101 83 87 102 118 126 124 121 101 76 55 63 72 78 85 89 83 83 90 341 333 340 346 12 31 53 76 90 102 113 110 98 87 79 74 77 70 72 69 56 71 74 46 73 101 75 70 81 91 105 108 93 89 130 129 121 117 113 112 156 130 65 281 56 83 85 355 284 281 289 293 296 295 307 328
113 105 97 90 87 82 89 96 89 68 49 81 133 145 93 75 95 114 130 133 144 143 77 35 60 76 78 77 74 70 71 62 340 336 342 346 19 32 46 79 101 119 119 103 90 85 77 75 83 84 88 81 67 81 86 69 67 96 101 85 75 83 94 100 105 98 101 107 95 105 126 129 155 124 113 209 112 111 257 295 275 274 271 265 266 265 282 306
114 102 90 85 85 87 95 96 89 69 51 78 114 133 108 67 92 111 132 141 153 166 2 353 16 99 84 73 71 66 51 15 346 350 3 354 34 49 71 102 126 126 111 93 92 93 80 80 87 85 82 86 95 100 95 78 64 79 104 108 90 87 94 102 104 94 86 87 99 135 115 74 29 19 204 175 158 176 291 278 256 257 241 231 245 254 261 269
108 99 92 89 88 91 94 91 85 74 76 95 103 106 102 85 96 113 128 137 152 334 335 354 107 110 93 83 81 69 23 359 357 15 38 42 60 86 109 117 125 123 105 84 96 93 82 87 79 89 97 97 103 105 106 82 67 86 109 114 108 102 99 102 94 83 85 83 207 157 105 92 65 302 210 180 174 225 288 250 223 239 231 225 240 250 252 254
102 98 96 94 93 95 93 89 88 86 89 95 95 93 93 91 96 109 112 104 89 63 43 102 135 118 81 71 73 67 5 4 23 39 54 65 89 119 104 104 114 108 86 66 70 79 100 112 104 104 102 91 80 57 40 92 114 119 112 106 102 105 93 84 92 77 78 78 333 205 139 141 130 246 222 175 175 322 274 229 207 238 240 241 248 251 247 247
96 96 99 100 98 97 92 92 97 95 90 90 91 89 87 89 93 100 100 97 91 86 88 95 111 98 76 68 73 75 9 26 39 48 59 68 77 79 77 89 105 101 92 75 74 94 106 114 119 118 97 89 86 65 61 99 122 122 113 103 97 104 89 64 93 65 352 99 9 316 191 205 174 240 229 157 163 317 262 238 232 242 249 258 264 265 251 245
88 89 100 106 103 100 93 94 106 105 95 93 94 89 84 89 94 99 101 99 90 84 88 90 94 88 76 64 64 75 41 44 48 56 64 66 69 72 76 87 95 98 100 88 78 103 109 120 122 100 110 132 102 82 94 116 120 124 115 104 111 115 81 41 60 35 318 136 22 301 239 211 193 224 180 140 161 267 251 249 242 243 263 274 280 275 261 253
80 77 89 108 110 107 99 96 110 113 103 99 99 93 88 89 95 100 96 90 81 75 90 93 89 84 76 61 48 66 58 54 59 66 68 69 71 75 80 84 86 89 97 91 83 98 94 95 99 93 104 129 99 101 127 134 124 127 100 101 128 129 72 36 20 333 284 116 345 247 256 168 191 221 176 145 268 252 244 241 239 247 264 272 276 274 267 260
77 68 70 92 113 115 107 105 111 113 107 104 104 100 95 91 92 94 89 85 84 82 90 95 88 82 79 75 60 60 64 61 61 62 63 70 73 75 78 82 84 85 89 87 84 90 92 93 95 92 66 81 108 117 115 117 100 110 130 104 109 141 89 64 24 329 255 118 3 238 279 84 174 216 173 158 194 246 250 240 241 248 258 271 266 267 266 260
77 67 60 69 102 119 117 114 114 111 109 109 109 106 99 95 94 95 90 85 82 82 87 87 84 84 83 86 69 53 63 55 42 39 44 60 67 72 76 79 82 83 85 86 85 88 88 83 81 83 70 88 121 124 112 114 87 78 216 108 38 47 107 126 69 2 339 87 268 246 289 1 219 211 162 157 183 227 253 252 251 250 256 269 261 263 264 265
73 64 61 64 94 119 120 120 120 113 109 111 112 112 106 100 98 98 95 86 79 83 83 74 78 91 94 87 58 26 43 31 18 26 39 49 55 70 75 77 81 82 81 79 83 81 70 64 66 75 87 99 117 115 121 119 102 21 351 96 75 81 122 180 140 47 350 308 251 244 296 316 245 159 154 158 200 220 248 256 255 253 258 265 265 267 263 272
53 52 65 78 109 123 122 121 118 113 110 109 110 112 107 104 106 105 103 90 76 86 86 69 72 87 75 54 52 16 4 0 7 23 39 44 47 59 66 77 75 74 76 61 58 54 37 45 75 89 72 74 33 326 140 98 93 91 41 104 78 12 186 228 136 68 337 284 250 240 265 281 266 176 182 184 199 219 243 255 257 256 258 262 270 272 268 272
337 24 65 100 129 129 124 121 116 113 110 106 104 104 98 92 88 78 75 97 76 71 77 38 25 84 65 24 18 349 317 341 9 18 24 31 39 46 46 52 9 342 72 39 32 24 8 33 119 99 59 38 29 333 73 75 55 111 111 128 115 210 255 327 113 18 350 299 271 274 255 272 275 244 214 179 182 218 239 254 263 266 268 271 273 273 275 273
287 334 75 119 143 138 129 126 120 117 113 109 108 105 96 81 73 61 50 59 61 24 57 354 346 95 87 70 339 331 346 359 14 18 14 2 11 38 36 39 41 18 54 56 23 10 6 52 51 67 47 19 22 357 28 35 344 52 87 89 100 136 109 354 46 33 353 308 283 279 274 285 287 281 261 169 164 223 245 259 264 264 266 269 272 273 274 275
68 125 90 126 152 154 145 137 127 122 117 112 115 106 101 72 60 47 37 52 59 39 70 0 12 78 76 58 320 333 34 40 42 22 12 360 344 27 16 12 54 54 42 38 34 360 348 73 56 42 35 9 10 359 11 333 324 36 86 82 63 38 82 74 44 45 349 315 290 292 296 288 279 276 265 163 156 235 244 248 252 258 262 265 275 278 278 281
67 95 86 130 153 161 157 147 136 135 123 96 99 74 134 278 79 126 40 60 57 39 65 55 58 76 72 45 355 347 345 55 46 19 12 5 335 354 356 347 65 61 33 313 21 324 7 70 60 8 6 353 12 21 298 307 1 27 72 84 70 24 43 65 30 32 20 330 296 14 309 284 275 271 257 167 187 234 237 243 254 259 263 265 267 276 287 294
63 74 98 135 152 161 162 159 158 158 142 358 27 87 93 119 121 129 127 97 57 30 60 72 66 70 66 49 22 3 12 42 28 12 8 4 6 20 351 22 67 72 20 314 176 95 57 70 59 0 357 232 79 79 210 65 45 33 48 69 80 24 318 225 93 63 27 321 316 346 311 291 292 284 266 199 216 240 263 274 284 284 274 275 278 290 304 306
71 84 114 142 155 165 170 176 183 186 250 329 111 110 111 118 124 122 109 109 80 17 30 46 54 42 28 41 19 7 54 40 359 354 357 358 30 43 21 57 66 72 21 5 100 107 74 74 33 1 242 225 72 55 339 83 54 36 25 342 47 20 327 68 83 20 11 343 313 309 291 287 319 21 85 61 250 277 310 289 277 269 266 280 303 309 295 298
89 98 113 142 155 166 177 183 187 188 151 130 118 117 128 130 129 124 101 99 91 50 27 40 75 46 29 22 7 13 80 57 327 337 352 4 79 352 41 71 68 67 41 34 77 86 76 63 24 276 223 272 50 52 15 332 64 49 29 24 62 44 4 295 307 313 277 145 309 304 285 242 19 46 72 60 31 267 289 281 261 233 239 270 292 287 266 278
105 109 112 135 150 161 170 170 164 144 128 123 120 127 137 136 135 128 102 82 75 56 24 96 116 49 33 357 359 11 131 74 40 335 351 17 42 273 102 71 40 72 41 34 75 80 68 53 297 220 119 37 61 57 20 330 338 86 48 29 60 92 350 290 304 305 274 136 27 334 326 88 55 46 34 23 340 283 245 261 267 240 210 249 270 280 266 262
118 121 119 127 136 147 158 156 137 137 126 119 133 141 144 144 144 121 95 90 69 5 354 63 86 23 11 352 353 336 165 59 36 12 12 22 17 109 123 19 30 98 174 63 81 85 60 71 140 97 105 90 90 80 23 326 307 57 68 62 170 210 278 329 330 320 320 1 10 353 342 326 1 56 32 353 320 298 268 243 257 252 232 245 254 277 270 261
130 137 134 130 134 136 147 157 145 140 123 144 157 153 155 159 122 73 251 84 64 350 354 5 344 13 6 351 350 313 124 5 225 35 21 16 8 16 78 39 52 75 101 150 95 66 22 50 69 30 65 84 72 72 20 334 311 26 89 161 216 269 314 9 329 332 18 316 308 23 3 287 305 53 38 329 310 300 299 279 258 232 229 251 237 250 255 260
139 151 151 148 148 127 104 151 151 146 137 165 167 166 176 188 182 316 203 91 57 5 8 10 5 16 4 4 18 62 106 336 1 23 6 20 26 31 73 57 90 90 74 240 125 78 4 22 38 4 13 55 44 22 359 318 309 46 110 195 298 357 40 268 277 293 60 243 159 34 355 287 304 66 107 311 314 319 331 348 352 334 158 150 251 250 253 260
141 158 164 170 169 123 127 155 157 148 150 161 168 173 181 200 236 288 88 120 22 26 20 342 30 7 343 348 27 44 43 12 34 345 338 28 35 40 77 74 122 104 65 32 93 112 46 28 357 327 26 53 50 25 356 292 315 74 141 173 152 167 144 269 292 282 226 256 78 24 349 329 340 64 114 334 344 338 339 0 12 12 55 349 278 271 271 283
132 152 164 177 179 148 142 160 168 154 148 158 163 163 173 183 207 84 76 127 357 8 262 337 325 335 342 357 35 25 28 29 0 334 347 45 30 42 78 210 167 97 68 61 74 98 112 111 246 26 42 49 66 82 59 290 308 124 182 201 183 192 205 212 287 269 241 54 75 31 347 330 333 64 91 12 346 320 320 344 35 102 95 326 276 304 314 315
111 137 156 168 174 169 157 159 169 159 148 152 154 139 131 100 68 113 116 110 16 324 10 24 346 346 7 67 50 15 31 31 347 352 33 32 6 37 64 259 229 101 91 76 71 111 131 109 105 60 38 257 266 219 174 188 207 211 234 238 225 187 181 198 197 242 311 29 82 61 344 299 289 24 69 334 269 257 275 308 340 128 260 332 321 322 317 311
81 111 151 158 165 172 165 155 156 153 146 145 145 122 129 225 17 83 314 306 40 22 40 44 345 12 14 59 47 3 351 35 12 24 42 22 34 37 18 1 344 171 102 76 85 135 92 55 86 143 182 285 292 248 173 178 208 240 255 266 301 352 63 359 14 292 325 32 112 84 353 273 255 310 324 275 267 265 260 272 289 292 288 301 312 313 309 308
66 73 129 141 149 152 141 145 149 146 143 139 125 70 80 96 91 91 301 301 28 357 51 74 6 3 294 35 45 351 334 37 4 32 49 349 68 66 54 49 347 273 101 93 144 143 114 109 129 170 144 1 322 321 68 186 319 331 305 318 351 20 16 2 2 316 307 24 131 153 332 302 284 299 260 267 290 309 289 265 267 273 275 287 298 299 297 297
74 75 104 113 119 126 127 137 144 138 137 134 115 14 65 81 102 112 260 258 334 335 53 74 318 33 44 55 25 308 51 60 347 11 39 354 63 67 96 66 15 329 118 117 128 50 136 135 60 26 11 347 351 6 2 333 338 354 301 314 11 63 357 345 353 318 305 312 294 170 262 319 340 20 191 267 295 292 271 254 253 254 256 274 283 281 281 285
86 87 92 96 100 110 119 131 138 139 146 117 61 55 91 141 192 180 186 201 188 174 115 260 247 70 51 44 28 307 318 53 15 24 29 26 56 38 19 15 4 359 318 183 134 66 338 99 65 35 329 336 25 28 331 286 272 137 224 280 11 55 358 32 44 1 300 299 289 230 273 266 283 319 264 272 283 277 256 224 234 242 230 248 271 273 273 285
90 85 80 78 81 95 111 126 131 140 158 105 67 64 82 156 194 166 126 113 145 153 149 148 21 60 83 31 43 46 338 16 21 5 36 41 78 40 8 325 354 356 331 357 140 179 253 110 105 108 67 25 21 266 287 287 297 265 238 14 57 17 322 120 76 70 196 276 283 305 292 277 269 275 250 283 279 268 256 225 235 241 230 247 268 270 264 272
93 84 69 50 48 83 116 122 129 141 123 79 75 83 92 32 334 343 17 4 104 122 145 143 5 17 122 139 39 22 352 15 353 332 71 69 144 84 358 280 34 318 320 337 193 229 283 120 124 183 141 89 327 267 221 279 292 279 310 99 101 23 8 129 307 164 205 274 268 321 298 296 312 20 160 202 220 226 235 259 260 250 238 247 258 261 260 267
119 97 68 32 26 69 129 119 116 116 89 68 81 109 121 57 13 2 34 332 264 106 116 118 37 339 217 147 107 6 334 339 23 32 85 202 114 133 280 298 156 243 320 305 253 301 289 144 126 197 170 111 212 257 222 145 178 297 28 104 148 269 102 155 234 347 327 297 273 285 297 270 257 252 196 200 200 216 228 241 272 258 240 252 261 271 282 295
167 121 56 13 14 59 134 135 105 76 74 75 103 134 110 98 60 253 186 317 279 144 92 115 83 12 334 77 112 67 341 11 71 49 93 172 92 181 274 320 175 182 338 296 280 74 297 269 131 145 121 85 205 234 220 138 141 246 269 109 323 332 355 29 50 334 282 295 298 311 325 223 209 216 237 218 206 217 231 247 268 258 246 260 272 285 294 301
155 144 36 359 18 92 108 101 72 47 65 77 120 136 72 128 148 148 201 294 307 114 84 142 144 125 117 9 339 114 38 58 98 51 28 81 141 177 189 266 239 71 7 286 286 84 286 297 108 126 153 244 200 200 301 42 123 215 217 182 148 94 36 188 99 45 298 275 255 303 304 271 190 183 217 222 212 209 225 248 265 265 264 264 268 275 285 294
88 125 17 354 21 135 95 68 55 37 78 78 81 109 66 145 136 91 171 264 356 313 320 113 116 124 140 135 280 169 116 84 108 100 124 178 212 184 121 128 331 1 290 227 205 260 283 308 30 132 183 223 95 39 355 357 349 309 280 265 168 125 179 226 196 59 349 282 198 250 291 283 221 160 212 219 209 209 220 239 261 271 270 271 273 270 274 285
63 111 0 350 342 162 81 56 50 26 92 79 40 88 46 103 114 63 69 104 2 267 34 69 78 85 130 118 68 176 149 95 101 121 172 204 222 169 94 82 283 301 299 286 61 57 18 303 267 150 164 4 56 62 39 8 339 317 310 327 3 137 222 263 277 164 146 334 33 50 280 272 175 156 214 228 236 246 227 224 253 273 273 271 277 276 273 271
59 139 12 358 8 165 77 66 120 26 63 119 334 41 20 54 114 75 12 17 359 114 63 53 53 54 98 123 117 170 174 109 112 57 200 219 186 104 94 123 227 208 216 261 87 116 200 268 282 227 128 103 122 128 108 352 315 269 246 239 269 303 344 346 344 107 168 187 161 171 252 252 166 150 209 235 263 272 256 225 239 265 279 275 276 278 275 266
59 157 19 9 25 185 89 86 150 78 86 161 81 59 19 37 70 60 54 42 21 209 100 91 36 54 76 63 89 122 208 234 183 1 287 201 144 89 101 237 251 212 212 342 37 191 261 62 276 288 122 158 174 159 162 183 240 248 230 153 206 88 77 98 132 95 248 209 172 212 257 247 127 117 224 231 236 258 254 227 221 248 272 278 277 277 277 274
82 138 308 16 40 87 89 123 142 125 141 130 92 77 51 69 50 354 8 70 33 291 88 91 279 77 90 85 76 72 8 346 194 225 65 168 141 82 72 264 282 301 53 14 348 276 320 42 266 294 321 313 330 332 322 79 152 217 183 175 205 170 153 179 131 158 240 192 163 219 247 278 111 184 221 227 227 251 258 241 220 231 255 268 273 274 276 274
113 78 268 5 33 58 68 346 90 117 149 141 111 95 67 89 88 295 194 95 98 236 68 89 181 116 90 88 81 69 15 6 44 121 143 166 157 87 31 26 337 340 112 37 338 321 116 104 314 293 279 303 358 347 303 39 166 190 174 191 199 194 197 174 128 201 197 141 192 230 250 299 288 248 222 230 236 249 265 262 243 231 235 247 257 264 271 268
119 97 72 320 26 55 72 31 45 99 145 151 130 146 130 107 95 127 218 297 158 190 57 75 159 175 130 137 120 103 43 356 22 80 109 118 108 82 330 250 356 338 200 268 318 350 150 179 83 249 259 265 265 238 250 269 242 215 189 191 191 192 191 191 208 199 135 144 246 244 218 260 273 270 270 276 272 274 285 287 285 279 257 251 254 258 263 260
44 135 199 312 62 81 81 83 89 93 96 93 98 127 129 128 154 164 155 48 65 235 211 97 204 208 156 159 154 130 129 14 28 105 135 151 133 131 175 202 222 7 48 218 306 322 213 240 119 190 267 264 243 243 239 235 242 228 216 205 189 186 190 203 219 194 164 215 256 62 151 236 262 278 285 284 284 287 290 291 295 295 278 262 256 254 256 254
55 108 43 343 68 135 35 47 109 105 90 80 110 151 159 159 167 183 138 107 65 279 268 190 206 179 154 165 150 141 174 182 141 198 179 157 158 171 182 197 183 28 69 149 2 326 214 188 135 183 281 282 288 342 245 227 243 247 235 221 203 199 201 212 227 212 211 251 274 298 280 271 269 269 272 276 281 286 285 285 279 269 260 251 250 250 252 250
139 145 146 64 81 98 19 23 98 100 80 60 125 153 163 162 165 174 178 165 160 173 202 225 174 141 136 165 149 159 204 180 106 210 173 151 171 202 205 199 145 106 24 152 103 314 261 130 116 152 279 284 310 19 291 219 240 253 249 229 209 209 214 225 239 231 232 260 275 279 280 277 268 255 258 271 286 301 268 264 257 252 245 241 245 245 248 250
99 126 142 115 87 355 343 42 43 91 105 121 167 156 178 184 173 154 140 213 227 174 192 178 143 123 68 179 167 322 214 176 1 298 160 142 115 175 185 175 143 147 168 167 155 200 200 139 121 135 285 278 25 20 327 306 270 261 264 237 204 198 207 218 223 212 209 220 231 246 254 258 262 262 256 261 257 239 247 247 249 251 236 231 241 244 244 244
107 106 122 104 88 323 321 62 347 119 132 85 103 144 188 200 173 143 121 158 205 126 239 169 143 130 108 174 190 298 29 133 75 62 95 90 68 72 64 56 83 123 160 156 146 222 179 173 147 133 275 258 198 54 310 309 288 263 265 219 189 188 205 222 228 221 214 204 181 208 229 233 100 73 238 240 226 230 241 237 240 250 240 230 235 242 246 243